Flag for Germany Weather past 2 weeks in Geretsried, Bavaria, Germany

Now
57 °F

Partly sunny.


Feels Like: 51 °F
Forecast: 35 / 40 °F
Wind: 38 mph from West

Location: Oberpfaffenhofen

Current Time: Mar 31, 2015 at 12:46:44 PM

Latest Report: Mar 31, 2015 at 12:20 PM


Visibility: N/A

Pressure: 29.59 "Hg

Humidity: 55%

Dew point: 41 °F

Location of GeretsriedLocation

Historic Weather in Geretsried — Graph

°F

Geretsried temperature yesterday

Maximum temperature yesterday: 48 °F (at 2:20 PM)
Minimum temperature yesterday: 43 °F (at 8:20 AM)
Average temperature yesterday: 44 °F

Past Weeks' High & Low Weather Summary

 TemperatureHumidityPressure
High63 °F (Mar 17, 12:50 PM)100% (Mar 24, 6:50 AM)30.24 "Hg (Mar 24, 6:50 AM)
Low27 °F (Mar 20, 6:50 AM)24% (Mar 17, 1:20 PM)29.53 "Hg (Mar 25, 1:50 PM)
Average48 °F61%29.96 "Hg
* Reported Mar 16 10:20 AM — Mar 31 11:50 AM, Geretsried, Weather by CustomWeather, © 2015

Note: Actual official high and low records may vary slightly from our data, if they occured in-between our weather recording intervals... More about our weather records

Advertising

Geretsried weather history for previous 24 hours

 ConditionsComfort  
Time TempWeatherWind HumidityBarometerVisibility
11:50 AM
Tue, Mar 31
57 °FPartly sunny.41 mph55%29.59 "HgN/A
11:20 AM57 °FPartly sunny.38 mph51%29.56 "HgN/A
10:50 AM57 °FPartly sunny.45 mph51%29.56 "HgN/A
10:20 AM57 °FPartly sunny.41 mph55%29.53 "HgN/A
9:50 AM55 °FPartly sunny.40 mph59%29.56 "HgN/A
9:20 AM55 °FBroken clouds.38 mph63%29.56 "HgN/A
8:50 AM54 °FBroken clouds.39 mph67%29.56 "HgN/A
8:20 AM54 °FPartly sunny.37 mph67%29.56 "HgN/A
7:50 AM54 °FPassing clouds.36 mph72%29.59 "HgN/A
7:20 AM52 °FPassing clouds.36 mph72%29.62 "HgN/A
6:50 AM52 °FPassing clouds.32 mph72%29.59 "HgN/A
6:50 PM
Mon, Mar 30
43 °FLight rain. Partly sunny.15 mph71%29.83 "HgN/A
6:20 PM45 °FPartly sunny.16 mph66%29.80 "HgN/A
5:50 PM43 °FSprinkles. Partly sunny.21 mph71%29.80 "HgN/A
5:20 PM43 °FPartly sunny.18 mph71%29.77 "HgN/A
4:50 PM43 °FPartly sunny.20 mph76%29.77 "HgN/A
4:20 PM45 °FPartly sunny.24 mph61%29.74 "HgN/A
3:50 PM45 °FSprinkles. Partly sunny.23 mph66%29.74 "HgN/A
3:20 PM43 °FSprinkles. Partly sunny.18 mph76%29.74 "HgN/A
2:50 PM45 °FLight rain. Scattered clouds.20 mph76%29.71 "HgN/A
2:20 PM48 °FScattered clouds.15 mph71%29.68 "HgN/A
1:50 PM45 °FScattered clouds.17 mph81%29.68 "HgN/A
1:20 PM45 °FPartly sunny.15 mph76%29.65 "HgN/A
12:50 PM45 °FPartly sunny.17 mph81%29.65 "HgN/A
12:20 PM45 °FSprinkles. Partly sunny.20 mph76%29.65 "HgN/A
Weather by CustomWeather, © 2015

See weather overviewHow to use our weather pages